Location: Cisewo
(53.3833°N, 14.9000°E)
Time: 11:06:04
(UTC+00:00)

ALOS 2 - Pass Details

Date: 18 April 2021
Orbit: 630 x 632 km, 97.9° (Epoch: 15 May)

Event Time Altitude Azimuth Distance (km) Brightness Sun altitude
Exits shadow 21:12:11 25° 80° (E) 1,280 4.0 -21.5°
Maximum altitude 21:12:59 27° 62° (ENE) 1,230 4.0 -21.6°
Drops below altitude 10° 21:16:41 10° 5° (N) 2,028 6.0 -21.8°
Sets 21:19:09 0° 353° (N) 2,940 7.3 -22.0°
